Volver al catálogo

GLOBALSTAR M069

ActivoComunicacionesLEO
NORAD 31573·PAYLOAD·🇺🇸 United States

Lanzado May 29, 2007 desde Baikonur Cosmodrome

Loading…

Próximos Pases (próximas 24 horas)

TLE

ActualizadoSource: Space-Track

Época: Sep 14, 2026, 07:34 UTC

1 31573U 07020C   26257.31548356 -.00000065  00000-0  25626-3 0  9991
2 31573  52.0064 359.8564 0001377 345.9193  46.8223 12.23474681889716

Sigue GLOBALSTAR M069 en tiempo real con AllMySat

Download on the App Store